Clarksville, TN

9:27 PM CDT on April 24, 2017 (GMT -0500)
Outlaw

Weather History for KCKV - March, 2014

Change the Weather History Date:

Tuesday, March 18, 2014

  Actual Average Record
Temperature  
Mean Temperature 44 °F 50 °F  
Max Temperature 56 °F 61 °F 84 °F (1982)
Min Temperature 31 °F 38 °F 15 °F (1965)
Degree Days  
Heating Degree Days 21    
Month to date heating degree days 410  
Since 1 July heating degree days 3892  
Cooling Degree Days 0    
Month to date cooling degree days 0  
Year to date cooling degree days  
Moisture  
Dew Point 39 °F    
Average Humidity 78    
Maximum Humidity 96    
Minimum Humidity 61    
Precipitation  
Precipitation 0.00 in 0.14 in 1.50 in (1992)
Month to date precipitation 1.78 2.14  
Year to date precipitation 9.62  
Sea Level Pressure  
Sea Level Pressure 29.88 in    
Wind  
Wind Speed 6 mph (South)    
Max Wind Speed 20 mph    
Max Gust Speed 28 mph    
Visibility 9 miles    
Events      
T = Trace of Precipitation, MM = Missing Value Source: NWS Daily Summary

Daily Weather History Graph

Daily Weather History Graph

Search for Another Location

Airport or City:

Trip Planner

Search our weather history database for the weather conditions in past years. The results will help you decide how hot, cold, wet, or windy it might be!

Date:

Astronomy

Mar. 18, 2014 Rise Set
Actual Time 6:56 AM CDT 6:59 PM CDT
Civil Twilight 6:30 AM CDT 7:25 PM CDT
Nautical Twilight 6:00 AM CDT 7:55 PM CDT
Astronomical Twilight 5:29 AM CDT 8:26 PM CDT
Moon 9:12 PM CDT (3/18) 7:48 AM CDT (3/18)
Length of Visible Light 12h 55m
Length of Day
12h 03m
Waning Gibbous, 96% of the Moon is Illuminated
Mar 18
Waning Gibbous
Mar 23
Last Quarter
Mar 30
New
Apr 7
First Quarter
Apr 15
Full

Hourly Weather History & Observations

Time (CDT) Temp. Windchill Dew Point Humidity Pressure Visibility Wind Dir Wind Speed Gust Speed Precip Events Conditions
12:52 AM 33.1 °F 28.7 °F 30.0 °F 89% 29.86 in 10.0 mi ESE 4.6 mph - N/A   Clear
1:52 AM 33.1 °F - 30.0 °F 89% 29.87 in 9.0 mi Calm Calm - N/A   Clear
2:52 AM 30.9 °F - 28.9 °F 92% 29.87 in 4.0 mi Calm Calm - N/A   Mostly Cloudy
3:52 AM 33.1 °F - 30.9 °F 92% 29.85 in 5.0 mi Calm Calm - N/A   Overcast
4:52 AM 34.0 °F - 32.0 °F 92% 29.86 in 7.0 mi Calm Calm - N/A   Overcast
5:52 AM 36.0 °F - 33.1 °F 89% 29.86 in 7.0 mi Calm Calm - N/A   Overcast
6:52 AM 36.0 °F - 33.1 °F 89% 29.88 in 6.0 mi Calm Calm - N/A   Overcast
7:52 AM 36.0 °F 31.1 °F 33.1 °F 89% 29.90 in 7.0 mi SE 5.8 mph - N/A   Overcast
8:52 AM 37.9 °F - 35.1 °F 89% 29.92 in 7.0 mi Calm Calm - N/A   Overcast
9:07 AM 37.4 °F 34.9 °F 35.6 °F 93% 29.92 in 8.0 mi SSE 3.5 mph - N/A   Overcast
9:52 AM 39.9 °F 35.8 °F 37.0 °F 89% 29.96 in 6.0 mi South 5.8 mph - N/A   Overcast
10:47 AM 42.8 °F 37.5 °F 37.4 °F 81% 29.96 in 10.0 mi South 9.2 mph - N/A   Overcast
10:52 AM 43.0 °F 38.8 °F 37.9 °F 82% 29.97 in 10.0 mi South 6.9 mph - N/A   Overcast
11:28 AM 44.6 °F 40.7 °F 39.2 °F 81% 29.96 in 10.0 mi South 6.9 mph - N/A   Overcast
11:52 AM 46.9 °F - 39.9 °F 77% 29.97 in 10.0 mi SSE 8.1 mph - N/A   Overcast
12:52 PM 50.0 °F - 42.1 °F 74% 29.95 in 10.0 mi South 11.5 mph 17.3 mph N/A   Overcast
1:04 PM 51.8 °F - 42.8 °F 71% 29.94 in 10.0 mi SSW 13.8 mph 21.9 mph N/A   Overcast
1:30 PM 51.8 °F - 42.8 °F 71% 29.92 in 10.0 mi South 11.5 mph - N/A   Overcast
1:52 PM 52.0 °F - 43.0 °F 71% 29.91 in 10.0 mi South 9.2 mph - N/A   Overcast
2:52 PM 54.0 °F - 42.1 °F 64% 29.88 in 10.0 mi South 11.5 mph - N/A   Overcast
3:52 PM 54.0 °F - 42.1 °F 64% 29.86 in 10.0 mi SSE 16.1 mph 21.9 mph N/A   Overcast
4:52 PM 55.0 °F - 42.1 °F 62% 29.83 in 10.0 mi SSE 16.1 mph 20.7 mph N/A   Mostly Cloudy
5:02 PM 55.4 °F - 42.8 °F 63% 29.82 in 10.0 mi SSE 12.7 mph 21.9 mph N/A   Mostly Cloudy
5:29 PM 53.6 °F - 42.8 °F 67% 29.81 in 10.0 mi SSE 13.8 mph 21.9 mph N/A   Scattered Clouds
5:52 PM 54.0 °F - 42.1 °F 64% 29.81 in 10.0 mi SSE 10.4 mph - N/A   Partly Cloudy
6:52 PM 52.0 °F - 42.1 °F 69% 29.80 in 10.0 mi SSE 10.4 mph 18.4 mph N/A   Clear
7:52 PM 51.1 °F - 42.1 °F 71% 29.80 in 10.0 mi SSE 6.9 mph - N/A   Clear
8:52 PM 51.1 °F - 42.1 °F 71% 29.81 in 10.0 mi South 13.8 mph 25.3 mph N/A   Clear
9:52 PM 48.9 °F - 41.0 °F 74% 29.87 in 10.0 mi South 11.5 mph 21.9 mph N/A   Clear
10:44 PM 48.2 °F - 42.8 °F 82% 29.88 in 10.0 mi South 16.1 mph 21.9 mph N/A   Mostly Cloudy
10:52 PM 48.9 °F - 42.1 °F 77% 29.88 in 10.0 mi South 12.7 mph 20.7 mph N/A   Mostly Cloudy
11:08 PM 48.2 °F - 41.0 °F 76% 29.88 in 10.0 mi South 13.8 mph 20.7 mph N/A   Scattered Clouds
11:37 PM 48.2 °F - 42.8 °F 82% 29.89 in 10.0 mi South 16.1 mph - N/A   Mostly Cloudy
11:52 PM 48.9 °F - 42.1 °F 77% 29.90 in 10.0 mi South 13.8 mph - N/A   Mostly Cloudy